Flag for Germany Weather past 2 weeks in Demmin, Mecklenburg-Western Pomerania, Germany

Now
37 °F

Overcast.


Feels Like: 34 °F
Forecast: 33 / 45 °F
Wind: 3 mph from West

Location: Greifswald

Current Time: Mar 5, 2015 at 2:10:07 AM

Latest Report: Mar 5, 2015 at 1:00 AM


Visibility: 5 mi

Pressure: 30.22 "Hg

Humidity: 94%

Dew point: 35 °F

Location of DemminLocation

Historic Weather in Demmin — Graph

°F

Demmin temperature yesterday

Maximum temperature yesterday: 43 °F (at 4:00 PM)
Minimum temperature yesterday: 33 °F (at 2:00 AM)
Average temperature yesterday: 38 °F

Past Weeks' High & Low Weather Summary

 TemperatureHumidityPressure
High49 °F (Feb 27, 3:00 PM)99% (Feb 18, 6:00 AM)30.66 "Hg (Feb 18, 6:00 AM)
Low29 °F (Feb 26, 3:00 AM)43% (Feb 19, 3:00 PM)29.26 "Hg (Feb 21, 3:00 PM)
Average38 °F79%29.85 "Hg
* Reported Feb 18 1:00 AM — Mar 5 1:00 AM, Demmin, Weather by CustomWeather, © 2015

Note: Actual official high and low records may vary slightly from our data, if they occured in-between our weather recording intervals... More about our weather records

Advertising

Demmin weather history for previous 24 hours

 ConditionsComfort  
Time TempWeatherWind HumidityBarometerVisibility
1:00 AM
Thu, Mar 5
37 °FOvercast.3 mph94%30.22 "Hg5 mi
12:00 AM37 °FOvercast.2 mph92%30.18 "Hg7 mi
11:00 PM
Wed, Mar 4
37 °FOvercast.3 mph90%30.16 "Hg9 mi
10:00 PM37 °FPassing clouds.3 mph89%30.13 "Hg11 mi
9:00 PM38 °FOvercast.5 mph86%30.11 "Hg14 mi
8:00 PM38 °FPassing clouds.3 mph85%30.10 "Hg14 mi
7:00 PM40 °FOvercast.3 mph78%30.08 "Hg16 mi
6:00 PM42 °FPassing clouds.5 mph74%30.07 "Hg16 mi
5:00 PM42 °FScattered clouds.3 mph74%30.06 "Hg16 mi
4:00 PM43 °FOvercast.5 mph72%30.05 "Hg16 mi
3:00 PM42 °FPassing clouds.5 mph77%30.04 "Hg11 mi
2:00 PM40 °FOvercast.6 mph83%30.04 "Hg11 mi
1:00 PM42 °FOvercast.6 mph70%30.02 "Hg12 mi
12:00 PM42 °FPartly sunny.5 mph69%30.02 "Hg11 mi
11:00 AM40 °FPassing clouds.5 mph77%30.01 "Hg12 mi
9:00 AM35 °FPassing clouds.5 mph87%29.98 "Hg12 mi
8:00 AM34 °FPassing clouds.5 mph90%29.96 "Hg10 mi
7:00 AM34 °FLow clouds.5 mph92%29.94 "Hg9 mi
6:00 AM34 °FPassing clouds.5 mph93%29.92 "Hg14 mi
5:00 AM35 °FLight rain. Low clouds.6 mph93%29.90 "Hg11 mi
3:00 AM34 °FLight snow. Low clouds.6 mph94%29.86 "Hg3 mi
2:00 AM33 °FSnow. Low clouds.7 mph97%29.84 "Hg2 mi
Weather by CustomWeather, © 2015

See weather overviewHow to use our weather pages